Time,TemperatureF,DewpointF,PressureIn,WindDirection,WindDirectionDegrees,WindSpeedMPH,WindSpeedGustMPH,Humidity,HourlyPrecipIn,Conditions,Clouds,dailyrainin,SoftwareType,DateUTC
2013-01-22 00:00:00,59.0,57.9,30.09,North,355,0.0,0.0,96,0.00,,SKC,0.00,VWS V14.01,2013-01-22 05:00:00,
2013-01-22 00:01:00,59.0,57.9,30.09,North,355,0.0,0.0,96,0.00,,SKC,0.00,VWS V14.01,2013-01-22 05:01:00,
2013-01-22 00:05:00,59.0,57.9,30.09,North,360,1.0,1.0,96,0.00,,SKC,0.00,VWS V14.01,2013-01-22 05:05:00,
2013-01-22 00:10:00,59.0,57.9,30.10,North,355,0.0,2.0,96,0.00,,SKC,0.00,VWS V14.01,2013-01-22 05:10:00,
2013-01-22 00:15:00,59.0,57.6,30.10,North,355,0.0,2.0,95,0.00,,SKC,0.00,VWS V14.01,2013-01-22 05:15:00,
2013-01-22 00:21:00,59.0,57.6,30.10,North,351,0.0,2.0,95,0.00,,SKC,0.00,VWS V14.01,2013-01-22 05:21:00,
2013-01-22 00:26:00,59.0,57.6,30.11,NNE,15,1.0,4.0,95,0.00,,SKC,0.00,VWS V14.01,2013-01-22 05:26:00,
2013-01-22 00:32:00,59.1,57.7,30.11,NNE,13,1.0,2.0,95,0.00,,SKC,0.00,VWS V14.01,2013-01-22 05:32:00,
2013-01-22 00:37:00,59.3,57.9,30.11,NNE,22,3.0,3.0,95,0.00,,SKC,0.00,VWS V14.01,2013-01-22 05:37:00,
2013-01-22 00:42:00,59.6,57.9,30.11,North,5,0.0,4.0,94,0.00,,SKC,0.00,VWS V14.01,2013-01-22 05:42:00,
2013-01-22 00:48:00,59.9,57.9,30.10,North,5,0.0,6.0,93,0.00,,SKC,0.00,VWS V14.01,2013-01-22 05:48:00,
2013-01-22 00:53:00,60.0,57.7,30.11,NNW,340,1.0,6.0,92,0.00,,SKC,0.00,VWS V14.01,2013-01-22 05:53:00,
2013-01-22 00:59:00,60.1,57.5,30.10,NW,313,1.0,6.0,91,0.00,,SKC,0.00,VWS V14.01,2013-01-22 05:59:00,
2013-01-22 01:04:00,60.2,57.0,30.11,NNE,14,1.0,3.0,89,0.00,,SKC,0.00,VWS V14.01,2013-01-22 06:04:00,
2013-01-22 01:10:00,60.4,56.2,30.11,NNE,17,1.0,3.0,86,0.00,,SKC,0.00,VWS V14.01,2013-01-22 06:10:00,
2013-01-22 01:15:00,60.6,55.8,30.12,NNE,25,1.0,3.0,84,0.00,,SKC,0.00,VWS V14.01,2013-01-22 06:15:00,
2013-01-22 01:20:00,60.8,55.6,30.11,NE,54,0.0,3.0,83,0.00,,SKC,0.00,VWS V14.01,2013-01-22 06:20:00,
2013-01-22 01:26:00,60.9,54.7,30.11,NNW,333,6.0,6.0,80,0.00,,SKC,0.00,VWS V14.01,2013-01-22 06:26:00,
2013-01-22 01:31:00,61.0,54.1,30.11,NNW,340,3.0,5.0,78,0.00,,SKC,0.00,VWS V14.01,2013-01-22 06:31:00,
2013-01-22 01:36:00,61.2,53.9,30.12,North,9,1.0,8.0,77,0.00,,SKC,0.00,VWS V14.01,2013-01-22 06:36:00,
2013-01-22 01:42:00,61.2,52.9,30.11,North,5,1.0,8.0,74,0.00,,SKC,0.00,VWS V14.01,2013-01-22 06:42:00,
2013-01-22 01:47:00,61.3,52.6,30.11,NNE,30,2.0,8.0,73,0.00,,SKC,0.00,VWS V14.01,2013-01-22 06:47:00,
2013-01-22 01:53:00,61.2,52.9,30.11,North,351,3.0,8.0,74,0.00,,SKC,0.00,VWS V14.01,2013-01-22 06:53:00,
2013-01-22 01:58:00,61.2,52.5,30.11,NE,43,2.0,8.0,73,0.00,,SKC,0.00,VWS V14.01,2013-01-22 06:58:00,
2013-01-22 03:08:00,59.3,52.1,30.10,North,355,0.0,3.0,77,0.00,,SKC,0.00,VWS V14.01,2013-01-22 08:08:00,
2013-01-22 03:13:00,59.1,51.2,30.10,NNE,13,1.0,6.0,75,0.00,,SKC,0.00,VWS V14.01,2013-01-22 08:13:00,
2013-01-22 03:18:00,58.9,51.4,30.10,NNE,17,1.0,6.0,76,0.00,,SKC,0.00,VWS V14.01,2013-01-22 08:18:00,
2013-01-22 03:24:00,58.7,50.8,30.10,NNE,20,1.0,6.0,75,0.00,,SKC,0.00,VWS V14.01,2013-01-22 08:24:00,
2013-01-22 03:29:00,58.7,50.8,30.10,NNE,25,1.0,6.0,75,0.00,,SKC,0.00,VWS V14.01,2013-01-22 08:29:00,
2013-01-22 03:34:00,58.6,50.7,30.10,North,350,2.0,3.0,75,0.00,,SKC,0.00,VWS V14.01,2013-01-22 08:34:00,
2013-01-22 03:40:00,58.5,51.0,30.10,NNW,342,2.0,3.0,76,0.00,,SKC,0.00,VWS V14.01,2013-01-22 08:40:00,
2013-01-22 03:45:00,58.3,50.8,30.10,North,5,2.0,3.0,76,0.00,,SKC,0.00,VWS V14.01,2013-01-22 08:45:00,
2013-01-22 03:51:00,58.3,50.4,30.10,North,355,2.0,3.0,75,0.00,,SKC,0.00,VWS V14.01,2013-01-22 08:51:00,
2013-01-22 03:56:00,58.2,50.3,30.10,North,355,0.0,3.0,75,0.00,,SKC,0.00,VWS V14.01,2013-01-22 08:56:00,
2013-01-22 04:02:00,58.1,49.9,30.10,North,5,3.0,3.0,74,0.00,,SKC,0.00,VWS V14.01,2013-01-22 09:02:00,
2013-01-22 04:07:00,58.1,50.2,30.10,North,360,0.0,4.0,75,0.00,,SKC,0.00,VWS V14.01,2013-01-22 09:07:00,
2013-01-22 04:12:00,58.0,49.8,30.10,NNE,25,3.0,4.0,74,0.00,,SKC,0.00,VWS V14.01,2013-01-22 09:12:00,
2013-01-22 04:19:00,58.0,49.4,30.10,NNE,25,1.0,4.0,73,0.00,,SKC,0.00,VWS V14.01,2013-01-22 09:19:00,
2013-01-22 04:24:00,58.0,49.4,30.10,North,360,3.0,4.0,73,0.00,,SKC,0.00,VWS V14.01,2013-01-22 09:24:00,
2013-01-22 04:30:00,57.9,49.3,30.10,North,355,0.0,4.0,73,0.00,,SKC,0.00,VWS V14.01,2013-01-22 09:30:00,
2013-01-22 04:35:00,57.9,49.3,30.10,North,360,2.0,4.0,73,0.00,,SKC,0.00,VWS V14.01,2013-01-22 09:35:00,
2013-01-22 04:41:00,57.7,49.1,30.11,North,5,0.0,4.0,73,0.00,,SKC,0.00,VWS V14.01,2013-01-22 09:41:00,
2013-01-22 04:46:00,57.6,49.4,30.10,NNE,12,3.0,4.0,74,0.00,,SKC,0.00,VWS V14.01,2013-01-22 09:46:00,
2013-01-22 04:51:00,57.5,49.3,30.10,North,360,1.0,4.0,74,0.00,,SKC,0.00,VWS V14.01,2013-01-22 09:51:00,
2013-01-22 04:57:00,57.3,49.1,30.10,North,5,2.0,4.0,74,0.00,,SKC,0.00,VWS V14.01,2013-01-22 09:57:00,
2013-01-22 05:02:00,57.2,49.0,30.11,NNE,15,3.0,5.0,74,0.00,,SKC,0.00,VWS V14.01,2013-01-22 10:02:00,
2013-01-22 05:08:00,57.2,49.0,30.11,NNE,25,4.0,6.0,74,0.00,,SKC,0.00,VWS V14.01,2013-01-22 10:08:00,
2013-01-22 05:13:00,57.3,48.7,30.10,NNE,20,1.0,6.0,73,0.00,,SKC,0.00,VWS V14.01,2013-01-22 10:13:00,
2013-01-22 05:36:00,57.7,48.0,30.11,NNE,33,1.0,1.0,70,0.00,,SKC,0.00,VWS V14.01,2013-01-22 10:36:00,
2013-01-22 06:10:00,57.7,48.0,30.11,NNE,33,0.0,2.0,70,0.00,,SKC,0.00,VWS V14.01,2013-01-22 11:10:00,
2013-01-22 06:15:00,58.2,48.5,30.13,NNE,21,1.0,6.0,70,0.00,,SKC,0.00,VWS V14.01,2013-01-22 11:15:00,
2013-01-22 06:20:00,58.2,48.8,30.13,North,349,4.0,8.0,71,0.00,,SKC,0.00,VWS V14.01,2013-01-22 11:20:00,
2013-01-22 06:25:00,58.1,48.8,30.13,North,5,4.0,8.0,71,0.00,,SKC,0.00,VWS V14.01,2013-01-22 11:25:00,
2013-01-22 06:30:00,58.1,48.8,30.13,North,355,2.0,3.0,71,0.00,,SKC,0.00,VWS V14.01,2013-01-22 11:30:00,
2013-01-22 06:36:00,58.1,49.1,30.13,North,11,2.0,6.0,72,0.00,,SKC,0.00,VWS V14.01,2013-01-22 11:36:00,
2013-01-22 06:42:00,58.1,49.1,30.13,NNE,17,1.0,6.0,72,0.00,,SKC,0.00,VWS V14.01,2013-01-22 11:42:00,
2013-01-22 06:47:00,58.1,49.5,30.14,NNW,341,1.0,6.0,73,0.00,,SKC,0.00,VWS V14.01,2013-01-22 11:47:00,
2013-01-22 06:52:00,58.0,49.4,30.15,NNE,21,2.0,6.0,73,0.00,,SKC,0.00,VWS V14.01,2013-01-22 11:52:00,
2013-01-22 06:58:00,57.9,49.7,30.14,North,5,1.0,6.0,74,0.00,,SKC,0.00,VWS V14.01,2013-01-22 11:58:00,
2013-01-22 07:03:00,57.9,49.7,30.15,North,10,5.0,6.0,74,0.00,,SKC,0.00,VWS V14.01,2013-01-22 12:03:00,
2013-01-22 07:08:00,57.9,50.0,30.15,North,5,2.0,8.0,75,0.00,,SKC,0.00,VWS V14.01,2013-01-22 12:08:00,
2013-01-22 07:14:00,57.9,50.0,30.16,NNE,14,4.0,9.0,75,0.00,,SKC,0.00,VWS V14.01,2013-01-22 12:14:00,
2013-01-22 07:19:00,57.9,50.0,30.16,NNW,346,9.0,9.0,75,0.00,,SKC,0.00,VWS V14.01,2013-01-22 12:19:00,
2013-01-22 07:25:00,57.9,50.4,30.16,NNW,345,4.0,9.0,76,0.00,,SKC,0.00,VWS V14.01,2013-01-22 12:25:00,
2013-01-22 07:30:00,57.9,50.4,30.17,North,360,4.0,7.0,76,0.00,,SKC,0.00,VWS V14.01,2013-01-22 12:30:00,
2013-01-22 07:35:00,57.9,50.4,30.17,North,355,5.0,7.0,76,0.00,,SKC,0.00,VWS V14.01,2013-01-22 12:35:00,
2013-01-22 07:41:00,57.9,50.4,30.18,North,355,1.0,8.0,76,0.00,,SKC,0.00,VWS V14.01,2013-01-22 12:41:00,
2013-01-22 07:48:00,57.9,50.7,30.18,NNE,23,5.0,8.0,77,0.00,,SKC,0.00,VWS V14.01,2013-01-22 12:48:00,
2013-01-22 07:53:00,57.9,50.7,30.18,NNW,348,5.0,8.0,77,0.00,,SKC,0.00,VWS V14.01,2013-01-22 12:53:00,
2013-01-22 07:58:00,57.9,50.7,30.18,NNW,335,6.0,9.0,77,0.00,,SKC,0.00,VWS V14.01,2013-01-22 12:58:00,
2013-01-22 08:04:00,57.9,51.1,30.19,NNE,13,2.0,6.0,78,0.00,,SKC,0.00,VWS V14.01,2013-01-22 13:04:00,
2013-01-22 08:09:00,57.9,51.1,30.19,North,355,2.0,11.0,78,0.00,,SKC,0.00,VWS V14.01,2013-01-22 13:09:00,
2013-01-22 08:15:00,57.9,50.7,30.19,NNE,33,4.0,11.0,77,0.00,,SKC,0.00,VWS V14.01,2013-01-22 13:15:00,
2013-01-22 08:21:00,58.0,50.8,30.19,NNE,31,5.0,11.0,77,0.00,,SKC,0.00,VWS V14.01,2013-01-22 13:21:00,
2013-01-22 08:27:00,58.1,50.9,30.20,North,355,2.0,11.0,77,0.00,,SKC,0.00,VWS V14.01,2013-01-22 13:27:00,
2013-01-22 08:32:00,58.2,51.0,30.20,North,360,8.0,8.0,77,0.00,,SKC,0.00,VWS V14.01,2013-01-22 13:32:00,
2013-01-22 08:37:00,58.2,51.0,30.20,North,9,3.0,8.0,77,0.00,,SKC,0.00,VWS V14.01,2013-01-22 13:37:00,
2013-01-22 08:43:00,58.3,51.1,30.21,North,355,7.0,11.0,77,0.00,,SKC,0.00,VWS V14.01,2013-01-22 13:43:00,
2013-01-22 08:48:00,58.6,51.4,30.21,NE,42,2.0,11.0,77,0.00,,SKC,0.00,VWS V14.01,2013-01-22 13:48:00,
2013-01-22 08:54:00,59.0,51.1,30.21,North,360,5.0,11.0,75,0.00,,SKC,0.00,VWS V14.01,2013-01-22 13:54:00,
2013-01-22 08:59:00,59.3,51.0,30.21,NNE,15,4.0,12.0,74,0.00,,SKC,0.00,VWS V14.01,2013-01-22 13:59:00,
2013-01-22 09:05:00,59.5,51.2,30.22,NNE,17,3.0,8.0,74,0.00,,SKC,0.00,VWS V14.01,2013-01-22 14:05:00,
2013-01-22 09:10:00,59.7,51.0,30.22,North,5,6.0,8.0,73,0.00,,SKC,0.00,VWS V14.01,2013-01-22 14:10:00,
2013-01-22 09:16:00,60.0,51.3,30.22,NNW,339,8.0,8.0,73,0.00,,SKC,0.00,VWS V14.01,2013-01-22 14:16:00,
2013-01-22 09:21:00,60.6,51.5,30.22,NE,42,2.0,8.0,72,0.00,,SKC,0.00,VWS V14.01,2013-01-22 14:21:00,
2013-01-22 09:26:00,60.8,51.3,30.22,North,351,3.0,10.0,71,0.00,,SKC,0.00,VWS V14.01,2013-01-22 14:26:00,
2013-01-22 09:32:00,61.1,51.6,30.23,NNE,13,5.0,9.0,71,0.00,,SKC,0.00,VWS V14.01,2013-01-22 14:32:00,
2013-01-22 09:37:00,61.1,51.6,30.24,NNW,336,5.0,9.0,71,0.00,,SKC,0.00,VWS V14.01,2013-01-22 14:37:00,
2013-01-22 09:43:00,61.3,51.5,30.24,NE,41,7.0,9.0,70,0.00,,SKC,0.00,VWS V14.01,2013-01-22 14:43:00,
2013-01-22 09:48:00,61.8,52.3,30.24,NE,44,2.0,9.0,71,0.00,,SKC,0.00,VWS V14.01,2013-01-22 14:48:00,
2013-01-22 09:53:00,62.1,52.2,30.24,NNE,30,5.0,9.0,70,0.00,,SKC,0.00,VWS V14.01,2013-01-22 14:53:00,
2013-01-22 09:59:00,62.2,51.1,30.24,North,355,1.0,9.0,67,0.00,,SKC,0.00,VWS V14.01,2013-01-22 14:59:00,
2013-01-22 10:04:00,62.1,51.4,30.25,NNW,344,2.0,6.0,68,0.00,,SKC,0.00,VWS V14.01,2013-01-22 15:04:00,
2013-01-22 10:10:00,62.4,51.7,30.25,North,5,8.0,8.0,68,0.00,,SKC,0.00,VWS V14.01,2013-01-22 15:10:00,
2013-01-22 10:15:00,62.6,51.9,30.25,NNE,17,4.0,10.0,68,0.00,,SKC,0.00,VWS V14.01,2013-01-22 15:15:00,
2013-01-22 10:20:00,62.8,51.3,30.25,North,351,4.0,10.0,66,0.00,,SKC,0.00,VWS V14.01,2013-01-22 15:20:00,
2013-01-22 10:26:00,63.1,52.4,30.25,NNW,335,4.0,10.0,68,0.00,,SKC,0.00,VWS V14.01,2013-01-22 15:26:00,
2013-01-22 10:31:00,64.3,52.3,30.25,NNE,29,4.0,10.0,65,0.00,,SKC,0.00,VWS V14.01,2013-01-22 15:31:00,
2013-01-22 10:37:00,64.5,51.6,30.25,North,5,4.0,10.0,63,0.00,,SKC,0.00,VWS V14.01,2013-01-22 15:37:00,
2013-01-22 10:42:00,64.1,51.3,30.25,NNE,23,4.0,10.0,63,0.00,,SKC,0.00,VWS V14.01,2013-01-22 15:42:00,
2013-01-22 10:47:00,64.3,51.5,30.25,North,5,5.0,10.0,63,0.00,,SKC,0.00,VWS V14.01,2013-01-22 15:47:00,
2013-01-22 10:53:00,64.6,51.7,30.25,NNE,25,13.0,13.0,63,0.00,,SKC,0.00,VWS V14.01,2013-01-22 15:53:00,
2013-01-22 10:58:00,65.1,51.8,30.25,North,360,7.0,13.0,62,0.00,,SKC,0.00,VWS V14.01,2013-01-22 15:58:00,
2013-01-22 11:04:00,65.4,52.5,30.25,NE,36,2.0,4.0,63,0.00,,SKC,0.00,VWS V14.01,2013-01-22 16:04:00,
2013-01-22 11:09:00,65.5,52.6,30.25,NNE,28,4.0,7.0,63,0.00,,SKC,0.00,VWS V14.01,2013-01-22 16:09:00,
2013-01-22 11:14:00,65.7,52.3,30.25,North,355,5.0,8.0,62,0.00,,SKC,0.00,VWS V14.01,2013-01-22 16:14:00,
2013-01-22 11:20:00,65.9,52.5,30.25,NNE,19,3.0,8.0,62,0.00,,SKC,0.00,VWS V14.01,2013-01-22 16:20:00,
2013-01-22 11:25:00,65.9,52.1,30.25,NNE,19,4.0,9.0,61,0.00,,SKC,0.00,VWS V14.01,2013-01-22 16:25:00,
2013-01-22 11:30:00,65.8,52.0,30.25,ENE,59,5.0,11.0,61,0.00,,SKC,0.00,VWS V14.01,2013-01-22 16:30:00,
2013-01-22 11:36:00,65.9,51.2,30.25,NNW,338,4.0,11.0,59,0.00,,SKC,0.00,VWS V14.01,2013-01-22 16:36:00,
2013-01-22 11:42:00,66.0,51.3,30.25,WNW,293,6.0,11.0,59,0.00,,SKC,0.00,VWS V14.01,2013-01-22 16:42:00,
2013-01-22 11:47:00,65.7,51.5,30.25,North,360,6.0,13.0,60,0.00,,SKC,0.00,VWS V14.01,2013-01-22 16:47:00,
2013-01-22 11:52:00,65.8,52.0,30.25,NNE,32,2.0,13.0,61,0.00,,SKC,0.00,VWS V14.01,2013-01-22 16:52:00,
2013-01-22 11:58:00,66.1,52.3,30.25,North,5,3.0,13.0,61,0.00,,SKC,0.00,VWS V14.01,2013-01-22 16:58:00,
2013-01-22 12:03:00,65.8,51.1,30.25,NNW,346,5.0,9.0,59,0.00,,SKC,0.00,VWS V14.01,2013-01-22 17:03:00,
2013-01-22 12:09:00,65.6,52.2,30.25,NNW,337,3.0,9.0,62,0.00,,SKC,0.00,VWS V14.01,2013-01-22 17:09:00,
2013-01-22 12:14:00,65.8,52.0,30.25,North,360,5.0,9.0,61,0.00,,SKC,0.00,VWS V14.01,2013-01-22 17:14:00,
2013-01-22 12:20:00,66.1,52.3,30.25,NNE,15,3.0,9.0,61,0.00,,SKC,0.00,VWS V14.01,2013-01-22 17:20:00,
2013-01-22 12:25:00,66.2,52.4,30.25,NW,318,3.0,9.0,61,0.00,,SKC,0.00,VWS V14.01,2013-01-22 17:25:00,
2013-01-22 12:30:00,66.0,52.2,30.25,WNW,303,3.0,3.0,61,0.00,,SKC,0.00,VWS V14.01,2013-01-22 17:30:00,
2013-01-22 12:36:00,65.9,51.6,30.24,NNE,19,3.0,9.0,60,0.00,,SKC,0.00,VWS V14.01,2013-01-22 17:36:00,
2013-01-22 12:42:00,65.7,51.5,30.24,NNW,346,5.0,10.0,60,0.00,,SKC,0.00,VWS V14.01,2013-01-22 17:42:00,
2013-01-22 12:47:00,65.6,51.8,30.24,North,9,8.0,10.0,61,0.00,,SKC,0.00,VWS V14.01,2013-01-22 17:47:00,
2013-01-22 12:52:00,65.8,52.4,30.24,North,351,1.0,10.0,62,0.00,,SKC,0.00,VWS V14.01,2013-01-22 17:52:00,
2013-01-22 12:58:00,66.6,52.8,30.24,NNE,18,3.0,10.0,61,0.00,,SKC,0.00,VWS V14.01,2013-01-22 17:58:00,
2013-01-22 13:03:00,66.8,51.6,30.24,NNE,33,3.0,4.0,58,0.00,,SKC,0.00,VWS V14.01,2013-01-22 18:03:00,
2013-01-22 13:08:00,66.5,50.8,30.23,NE,53,3.0,6.0,57,0.00,,SKC,0.00,VWS V14.01,2013-01-22 18:08:00,
2013-01-22 13:14:00,66.5,49.8,30.23,North,9,5.0,9.0,55,0.00,,SKC,0.00,VWS V14.01,2013-01-22 18:14:00,
2013-01-22 13:19:00,66.3,50.6,30.23,North,5,1.0,11.0,57,0.00,,SKC,0.00,VWS V14.01,2013-01-22 18:19:00,
2013-01-22 13:25:00,66.3,51.1,30.23,NE,55,1.0,11.0,58,0.00,,SKC,0.00,VWS V14.01,2013-01-22 18:25:00,
2013-01-22 13:30:00,66.3,50.2,30.23,NE,44,4.0,5.0,56,0.00,,SKC,0.00,VWS V14.01,2013-01-22 18:30:00,
2013-01-22 13:35:00,66.6,51.8,30.23,NNW,333,7.0,7.0,59,0.00,,SKC,0.00,VWS V14.01,2013-01-22 18:35:00,
2013-01-22 13:41:00,67.0,50.8,30.23,NNE,30,8.0,8.0,56,0.00,,SKC,0.00,VWS V14.01,2013-01-22 18:41:00,
2013-01-22 13:47:00,66.7,50.0,30.23,North,5,6.0,10.0,55,0.00,,SKC,0.00,VWS V14.01,2013-01-22 18:47:00,
2013-01-22 13:52:00,66.5,50.8,30.23,NNE,28,4.0,10.0,57,0.00,,SKC,0.00,VWS V14.01,2013-01-22 18:52:00,
2013-01-22 13:57:00,66.5,51.3,30.22,NW,325,6.0,10.0,58,0.00,,SKC,0.00,VWS V14.01,2013-01-22 18:57:00,
2013-01-22 14:03:00,66.3,49.7,30.22,NNW,348,5.0,10.0,55,0.00,,SKC,0.00,VWS V14.01,2013-01-22 19:03:00,
2013-01-22 14:08:00,66.0,49.9,30.22,ENE,61,2.0,10.0,56,0.00,,SKC,0.00,VWS V14.01,2013-01-22 19:08:00,
2013-01-22 14:13:00,65.9,49.3,30.22,NNE,24,10.0,10.0,55,0.00,,SKC,0.00,VWS V14.01,2013-01-22 19:13:00,
2013-01-22 14:19:00,65.7,50.5,30.22,NNE,23,2.0,10.0,58,0.00,,SKC,0.00,VWS V14.01,2013-01-22 19:19:00,
2013-01-22 14:24:00,65.8,50.2,30.22,North,355,4.0,10.0,57,0.00,,SKC,0.00,VWS V14.01,2013-01-22 19:24:00,
2013-01-22 14:29:00,65.8,50.2,30.22,NNE,15,5.0,10.0,57,0.00,,SKC,0.00,VWS V14.01,2013-01-22 19:29:00,
2013-01-22 14:35:00,65.6,49.5,30.22,North,5,4.0,7.0,56,0.00,,SKC,0.00,VWS V14.01,2013-01-22 19:35:00,
2013-01-22 14:40:00,65.3,49.2,30.22,NE,48,2.0,7.0,56,0.00,,SKC,0.00,VWS V14.01,2013-01-22 19:40:00,
2013-01-22 14:45:00,65.1,50.0,30.22,NNW,334,5.0,7.0,58,0.00,,SKC,0.00,VWS V14.01,2013-01-22 19:45:00,
2013-01-22 14:52:00,64.8,48.3,30.22,North,9,5.0,9.0,55,0.00,,SKC,0.00,VWS V14.01,2013-01-22 19:52:00,
2013-01-22 14:58:00,64.3,47.8,30.22,NNW,338,6.0,11.0,55,0.00,,SKC,0.00,VWS V14.01,2013-01-22 19:58:00,
2013-01-22 15:03:00,64.1,48.6,30.22,NNE,20,3.0,6.0,57,0.00,,SKC,0.00,VWS V14.01,2013-01-22 20:03:00,
2013-01-22 15:08:00,64.0,47.0,30.22,NE,45,5.0,7.0,54,0.00,,SKC,0.00,VWS V14.01,2013-01-22 20:08:00,
2013-01-22 15:14:00,63.9,47.0,30.23,North,360,3.0,8.0,54,0.00,,SKC,0.00,VWS V14.01,2013-01-22 20:14:00,
2013-01-22 15:19:00,63.6,45.2,30.23,North,349,3.0,12.0,51,0.00,,SKC,0.00,VWS V14.01,2013-01-22 20:19:00,
2013-01-22 15:25:00,63.5,45.6,30.23,North,9,2.0,12.0,52,0.00,,SKC,0.00,VWS V14.01,2013-01-22 20:25:00,
2013-01-22 15:30:00,63.6,47.2,30.23,East,84,2.0,4.0,55,0.00,,SKC,0.00,VWS V14.01,2013-01-22 20:30:00,
2013-01-22 15:35:00,63.6,45.2,30.23,NNE,24,2.0,7.0,51,0.00,,SKC,0.00,VWS V14.01,2013-01-22 20:35:00,
2013-01-22 15:41:00,63.9,44.9,30.24,North,355,3.0,8.0,50,0.00,,SKC,0.00,VWS V14.01,2013-01-22 20:41:00,
2013-01-22 15:46:00,64.2,45.7,30.24,NNE,30,3.0,8.0,51,0.00,,SKC,0.00,VWS V14.01,2013-01-22 20:46:00,
2013-01-22 15:52:00,64.2,45.7,30.24,NNE,29,4.0,8.0,51,0.00,,SKC,0.00,VWS V14.01,2013-01-22 20:52:00,
2013-01-22 15:57:00,64.0,43.9,30.24,NE,44,3.0,8.0,48,0.00,,SKC,0.00,VWS V14.01,2013-01-22 20:57:00,
2013-01-22 16:02:00,63.6,45.2,30.24,NNE,23,2.0,3.0,51,0.00,,SKC,0.00,VWS V14.01,2013-01-22 21:02:00,
2013-01-22 16:08:00,63.4,43.4,30.24,NE,41,2.0,4.0,48,0.00,,SKC,0.00,VWS V14.01,2013-01-22 21:08:00,
2013-01-22 16:13:00,63.2,44.8,30.24,NNE,27,4.0,6.0,51,0.00,,SKC,0.00,VWS V14.01,2013-01-22 21:13:00,
2013-01-22 16:19:00,62.9,45.0,30.24,NE,40,3.0,6.0,52,0.00,,SKC,0.00,VWS V14.01,2013-01-22 21:19:00,
2013-01-22 16:26:00,62.7,45.8,30.25,NE,52,0.0,6.0,54,0.00,,SKC,0.00,VWS V14.01,2013-01-22 21:26:00,
2013-01-22 16:31:00,62.5,44.2,30.25,NE,36,1.0,3.0,51,0.00,,SKC,0.00,VWS V14.01,2013-01-22 21:31:00,
2013-01-22 16:33:00,62.4,44.0,30.24,ENE,58,2.0,4.0,51,0.00,,SKC,0.00,VWS V14.01,2013-01-22 21:33:00,
2013-01-22 16:39:00,62.3,44.0,30.25,North,355,3.0,4.0,51,0.00,,SKC,0.00,VWS V14.01,2013-01-22 21:39:00,
2013-01-22 16:44:00,62.1,44.3,30.25,North,360,2.0,4.0,52,0.00,,SKC,0.00,VWS V14.01,2013-01-22 21:44:00,
2013-01-22 16:49:00,61.9,45.1,30.25,NE,36,0.0,4.0,54,0.00,,SKC,0.00,VWS V14.01,2013-01-22 21:49:00,
2013-01-22 16:55:00,61.6,45.8,30.25,NE,36,0.0,4.0,56,0.00,,SKC,0.00,VWS V14.01,2013-01-22 21:55:00,
2013-01-22 17:00:00,61.3,46.0,30.25,NE,38,1.0,4.0,57,0.00,,SKC,0.00,VWS V14.01,2013-01-22 22:00:00,
2013-01-22 17:05:00,61.2,44.9,30.25,ENE,61,1.0,3.0,55,0.00,,SKC,0.00,VWS V14.01,2013-01-22 22:05:00,
2013-01-22 17:10:00,60.8,46.4,30.25,NE,39,0.0,3.0,59,0.00,,SKC,0.00,VWS V14.01,2013-01-22 22:10:00,
2013-01-22 17:16:00,60.4,46.0,30.25,NE,39,0.0,3.0,59,0.00,,SKC,0.00,VWS V14.01,2013-01-22 22:16:00,
2013-01-22 17:21:00,60.2,46.3,30.25,NE,39,0.0,3.0,60,0.00,,SKC,0.00,VWS V14.01,2013-01-22 22:21:00,
2013-01-22 17:27:00,60.1,46.6,30.26,NE,39,0.0,3.0,61,0.00,,SKC,0.00,VWS V14.01,2013-01-22 22:27:00,
2013-01-22 17:32:00,60.1,46.6,30.26,NE,39,0.0,1.0,61,0.00,,SKC,0.00,VWS V14.01,2013-01-22 22:32:00,
2013-01-22 17:37:00,59.9,46.9,30.26,NE,39,0.0,1.0,62,0.00,,SKC,0.00,VWS V14.01,2013-01-22 22:37:00,
2013-01-22 17:43:00,59.6,46.6,30.26,NE,39,0.0,1.0,62,0.00,,SKC,0.00,VWS V14.01,2013-01-22 22:43:00,
2013-01-22 17:48:00,59.2,46.2,30.26,NE,39,0.0,1.0,62,0.00,,SKC,0.00,VWS V14.01,2013-01-22 22:48:00,
2013-01-22 17:53:00,58.5,44.7,30.26,NE,39,0.0,1.0,60,0.00,,SKC,0.00,VWS V14.01,2013-01-22 22:53:00,
2013-01-22 17:59:00,58.2,45.7,30.26,NE,39,0.0,1.0,63,0.00,,SKC,0.00,VWS V14.01,2013-01-22 22:59:00,
2013-01-22 18:04:00,57.8,45.7,30.26,NE,39,0.0,0.0,64,0.00,,SKC,0.00,VWS V14.01,2013-01-22 23:04:00,
2013-01-22 18:10:00,57.3,45.2,30.26,NE,39,0.0,0.0,64,0.00,,SKC,0.00,VWS V14.01,2013-01-22 23:10:00,
2013-01-22 18:15:00,56.9,44.9,30.27,NE,39,0.0,0.0,64,0.00,,SKC,0.00,VWS V14.01,2013-01-22 23:15:00,
2013-01-22 18:21:00,56.2,43.8,30.27,NE,39,0.0,0.0,63,0.00,,SKC,0.00,VWS V14.01,2013-01-22 23:21:00,
2013-01-22 18:26:00,55.6,43.6,30.27,NE,39,0.0,0.0,64,0.00,,SKC,0.00,VWS V14.01,2013-01-22 23:26:00,
2013-01-22 18:31:00,54.9,43.4,30.27,NE,39,0.0,0.0,65,0.00,,SKC,0.00,VWS V14.01,2013-01-22 23:31:00,
2013-01-22 18:37:00,54.5,43.4,30.27,NE,39,0.0,0.0,66,0.00,,SKC,0.00,VWS V14.01,2013-01-22 23:37:00,
2013-01-22 18:42:00,54.2,43.5,30.27,NE,39,0.0,0.0,67,0.00,,SKC,0.00,VWS V14.01,2013-01-22 23:42:00,
2013-01-22 18:48:00,53.7,43.8,30.27,NE,39,0.0,0.0,69,0.00,,SKC,0.00,VWS V14.01,2013-01-22 23:48:00,
2013-01-22 18:53:00,53.2,43.7,30.27,NE,39,0.0,0.0,70,0.00,,SKC,0.00,VWS V14.01,2013-01-22 23:53:00,
2013-01-22 18:58:00,52.6,43.5,30.27,NE,39,0.0,0.0,71,0.00,,SKC,0.00,VWS V14.01,2013-01-22 23:58:00,
2013-01-22 19:04:00,52.3,43.5,30.27,NE,39,0.0,0.0,72,0.00,,SKC,0.00,VWS V14.01,2013-01-23 00:04:00,
2013-01-22 19:10:00,51.9,43.5,30.27,NE,39,0.0,0.0,73,0.00,,SKC,0.00,VWS V14.01,2013-01-23 00:10:00,
2013-01-22 19:15:00,51.6,43.2,30.27,NE,39,0.0,0.0,73,0.00,,SKC,0.00,VWS V14.01,2013-01-23 00:15:00,
2013-01-22 19:20:00,51.2,43.2,30.27,NE,39,0.0,0.0,74,0.00,,SKC,0.00,VWS V14.01,2013-01-23 00:20:00,
2013-01-22 19:26:00,50.9,43.3,30.27,NE,39,0.0,0.0,75,0.00,,SKC,0.00,VWS V14.01,2013-01-23 00:26:00,
2013-01-22 19:31:00,50.6,43.3,30.27,NE,39,0.0,0.0,76,0.00,,SKC,0.00,VWS V14.01,2013-01-23 00:31:00,
2013-01-22 19:36:00,50.4,43.1,30.28,NE,39,0.0,0.0,76,0.00,,SKC,0.00,VWS V14.01,2013-01-23 00:36:00,
2013-01-22 19:42:00,50.2,43.3,30.28,NE,39,0.0,0.0,77,0.00,,SKC,0.00,VWS V14.01,2013-01-23 00:42:00,
2013-01-22 19:48:00,50.0,43.8,30.28,NE,39,0.0,0.0,79,0.00,,SKC,0.00,VWS V14.01,2013-01-23 00:48:00,
2013-01-22 19:53:00,49.9,43.7,30.28,NE,39,0.0,0.0,79,0.00,,SKC,0.00,VWS V14.01,2013-01-23 00:53:00,
2013-01-22 19:58:00,49.7,43.8,30.28,NE,39,0.0,0.0,80,0.00,,SKC,0.00,VWS V14.01,2013-01-23 00:58:00,
2013-01-22 20:04:00,49.6,43.4,30.28,NE,39,0.0,0.0,79,0.00,,SKC,0.00,VWS V14.01,2013-01-23 01:04:00,
2013-01-22 20:09:00,49.5,42.9,30.28,NE,39,0.0,0.0,78,0.00,,SKC,0.00,VWS V14.01,2013-01-23 01:09:00,
2013-01-22 20:15:00,49.4,43.2,30.28,NE,39,0.0,0.0,79,0.00,,SKC,0.00,VWS V14.01,2013-01-23 01:15:00,